User: anonymous
Location: Unspecified
(0.0000°N, 0.0000°E)
Time: 01:44:03
(UTC+02:00)
Language:

Cosmos 1892 Rocket - Orbit

View from above orbital plane
View from above orbital plane
View from above satellite
View from above satellite

Ground track
Ground track

The orbit data is extracted from the following two-line orbital elements,

1 18422U 87088B   14245.50015568  .00000291  00000-0  33206-4 0  3325
2 18422 082.5105 051.1848 0019995 189.3967 223.4106 14.82417911450862
Epoch (UTC): 02 September 2014 12:00:13
Eccentricity: 0.0019995
inclination: 82.5105°
perigee height: 608 km
apogee height: 636 km
right ascension of ascending node: 51.1848°
argument of perigee: 189.3967°
revolutions per day: 14.82417911
mean anomaly at epoch: 223.4106°
orbit number at epoch: 45086

The dashed part of the orbit path shows where the satellite is in the earth's shadow,  

DLR